FW8707 Weather Reports


time (UTC)temp
C
wind
direction
speed
KPH
gust
KPH
rain 1hr
cm
rain 24hr
cm
rain mn
cm
humidity
%
barometer
mb
20260905090516 19 270 0.0 0.0 0.00 0.00 0.00 47 1017.0
20260905090024 20 270 0.0 0.0 0.00 0.00 0.00 46 1016.8
20260905085517 20 270 0.0 3.2 0.00 0.00 0.00 46 1016.8
20260905085016 20 270 0.0 6.4 0.00 0.00 0.00 45 1016.8
20260905084512 20 275 3.2 6.4 0.00 0.00 0.00 45 1016.7
20260905084011 20 275 0.0 6.4 0.00 0.00 0.00 45 1016.7
20260905083512 20 287 0.0 6.4 0.00 0.00 0.00 45 1016.7
20260905083017 20 287 1.6 6.4 0.00 0.00 0.00 45 1016.6
20260905082511 20 270 1.6 4.8 0.00 0.00 0.00 45 1016.7
20260905082014 20 279 1.6 4.8 0.00 0.00 0.00 45 1016.7
20260905081525 20 279 0.0 3.2 0.00 0.00 0.00 45 1016.7
20260905081015 20 279 0.0 3.2 0.00 0.00 0.00 45 1016.8
20260905080514 20 279 1.6 3.2 0.00 0.00 0.00 45 1016.8
20260905080026 20 279 0.0 3.2 0.00 0.00 0.00 45 1016.8
20260905075514 20 275 0.0 3.2 0.00 0.00 0.00 45 1016.8
20260905075013 20 275 0.0 6.4 0.00 0.00 0.00 44 1016.8
20260905074529 20 275 0.0 6.4 0.00 0.00 0.00 44 1016.8
20260905074016 20 275 0.0 4.8 0.00 0.00 0.00 44 1016.8
20260905073507 20 281 0.0 1.6 0.00 0.00 0.00 44 1016.8
20260905073012 21 281 0.0 1.6 0.00 0.00 0.00 42 1016.8
20260905072512 21 270 0.0 1.6 0.00 0.00 0.00 42 1016.7
20260905072014 21 270 0.0 1.6 0.00 0.00 0.00 42 1016.7
20260905071524 21 279 0.0 8.0 0.00 0.00 0.00 42 1016.7
20260905071013 21 279 0.0 8.0 0.00 0.00 0.00 40 1016.6
20260905070514 21 275 3.2 6.4 0.00 0.00 0.00 40 1016.6
20260905070027 21 279 1.6 6.4 0.00 0.00 0.00 40 1016.5
20260905065513 21 279 3.2 6.4 0.00 0.00 0.00 40 1016.6
20260905065014 21 279 1.6 4.8 0.00 0.00 0.00 39 1016.7
20260905064527 21 279 1.6 6.4 0.00 0.00 0.00 39 1016.7
20260905064020 21 275 1.6 6.4 0.00 0.00 0.00 40 1016.7
20260905063515 22 275 3.2 6.4 0.00 0.00 0.00 40 1016.7
20260905063030 22 279 3.2 6.4 0.00 0.00 0.00 39 1016.7
20260905062516 22 270 1.6 6.4 0.00 0.00 0.00 38 1016.7
20260905062009 22 270 1.6 8.0 0.00 0.00 0.00 38 1016.7
20260905061516 22 270 3.2 8.0 0.00 0.00 0.00 38 1016.7
20260905061014 22 279 1.6 8.0 0.00 0.00 0.00 38 1016.7
20260905060512 22 275 3.2 11.3 0.00 0.00 0.00 37 1016.5
20260905060039 22 275 3.2 11.3 0.00 0.00 0.00 37 1016.4
20260905055515 23 287 1.6 8.0 0.00 0.00 0.00 37 1016.5
20260905055014 23 270 1.6 6.4 0.00 0.00 0.00 37 1016.5
20260905054557 23 275 1.6 9.7 0.00 0.00 0.00 36 1016.6
20260905054017 23 275 3.2 11.3 0.00 0.00 0.00 36 1016.7
20260905053516 23 275 4.8 11.3 0.00 0.00 0.00 36 1016.7
20260905053032 23 279 3.2 12.9 0.00 0.00 0.00 36 1016.7
20260905052518 23 279 4.8 17.7 0.00 0.00 0.00 36 1016.8
20260905052014 23 279 4.8 17.7 0.00 0.00 0.00 36 1016.8
20260905051527 23 279 4.8 16.1 0.00 0.00 0.00 36 1016.8
20260905051015 24 279 4.8 11.3 0.00 0.00 0.00 35 1017.0
20260905050514 24 287 4.8 11.3 0.00 0.00 0.00 35 1017.1
20260905050020 25 285 1.6 8.0 0.00 0.00 0.00 34 1017.0
20260905045518 25 279 3.2 8.0 0.00 0.00 0.00 34 1017.0
20260905045015 25 279 3.2 8.0 0.00 0.00 0.00 34 1017.0
20260905044526 25 270 3.2 6.4 0.00 0.00 0.00 34 1017.1
20260905044015 25 279 1.6 11.3 0.00 0.00 0.00 33 1017.2
20260905043514 25 275 4.8 11.3 0.00 0.00 0.00 33 1017.3
20260905043032 25 279 4.8 11.3 0.00 0.00 0.00 33 1017.3
20260905042516 25 279 1.6 6.4 0.00 0.00 0.00 34 1017.3
20260905042018 25 279 0.0 3.2 0.00 0.00 0.00 33 1017.4
20260905041532 25 279 0.0 3.2 0.00 0.00 0.00 33 1017.5
20260905041009 26 279 0.0 4.8 0.00 0.00 0.00 34 1017.5
20260905040514 26 287 0.0 4.8 0.00 0.00 0.00 33 1017.5
20260905040017 26 275 0.0 3.2 0.00 0.00 0.00 34 1017.5
20260905035511 26 279 0.0 4.8 0.00 0.00 0.00 33 1017.5
20260905035017 26 279 0.0 6.4 0.00 0.00 0.00 33 1017.4
20260905034524 26 279 0.0 6.4 0.00 0.00 0.00 33 1017.4
20260905034004 26 286 0.0 6.4 0.00 0.00 0.00 34 1017.5
20260905033504 26 270 0.0 6.4 0.00 0.00 0.00 34 1017.5
20260905033008 26 275 0.0 6.4 0.00 0.00 0.00 34 1017.5
20260905032505 26 279 0.0 8.0 0.00 0.00 0.00 34 1017.3
20260905032005 26 279 1.6 8.0 0.00 0.00 0.00 33 1017.2
20260905031508 26 275 0.0 4.8 0.00 0.00 0.00 34 1017.2
20260905031008 26 285 0.0 1.6 0.00 0.00 0.00 34 1017.2
20260905030506 26 286 0.0 1.6 0.00 0.00 0.00 34 1017.1
20260905030014 26 285 0.0 1.6 0.00 0.00 0.00 34 1017.0
20260905025510 26 292 0.0 1.6 0.00 0.00 0.00 33 1017.1
20260905025011 26 288 0.0 1.6 0.00 0.00 0.00 33 1017.0
20260905024517 26 285 0.0 6.4 0.00 0.00 0.00 32 1016.8
20260905024013 26 282 0.0 6.4 0.00 0.00 0.00 32 1016.8
20260905023516 26 283 0.0 3.2 0.00 0.00 0.00 33 1016.7
20260905023026 26 287 0.0 3.2 0.00 0.00 0.00 32 1016.5
20260905022504 26 279 0.0 3.2 0.00 0.00 0.00 33 1016.5
20260905022006 27 279 0.0 3.2 0.00 0.00 0.00 32 1016.5
20260905021506 27 293 0.0 0.0 0.00 0.00 0.00 32 1016.5
20260905021004 27 283 0.0 0.0 0.00 0.00 0.00 31 1016.3
20260905020506 27 81 0.0 0.0 0.00 0.00 0.00 32 1016.3
20260905020012 27 81 0.0 0.0 0.00 0.00 0.00 31 1016.2
20260905015513 27 81 0.0 0.0 0.00 0.00 0.00 31 1016.1
20260905015008 27 81 0.0 1.6 0.00 0.00 0.00 30 1016.1
20260905014518 28 81 0.0 1.6 0.00 0.00 0.00 30 1016.0
20260905014013 28 81 0.0 1.6 0.00 0.00 0.00 30 1016.1
20260905013514 28 81 0.0 4.8 0.00 0.00 0.00 29 1016.0
20260905013027 28 65 0.0 4.8 0.00 0.00 0.00 29 1016.0
20260905012512 28 60 0.0 6.4 0.00 0.00 0.00 29 1016.0
20260905012017 28 64 0.0 6.4 0.00 0.00 0.00 29 1015.9
20260905011506 28 75 0.0 4.8 0.00 0.00 0.00 28 1016.0
20260905011005 29 64 0.0 8.0 0.00 0.00 0.00 28 1015.9
20260905010504 29 281 1.6 8.0 0.00 0.00 0.00 27 1015.9
20260905010015 30 54 0.0 6.4 0.00 0.00 0.00 27 1015.8
20260905005506 30 237 0.0 12.9 0.00 0.00 0.00 26 1015.8
20260905005010 30 35 1.6 12.9 0.00 0.00 0.00 25 1015.8
20260905004513 30 135 1.6 11.3 0.00 0.00 0.00 25 1015.7
20260905004011 31 1 0.0 6.4 0.00 0.00 0.00 23 1015.6
20260905003511 31 80 0.0 9.7 0.00 0.00 0.00 24 1015.6
20260905003021 31 308 1.6 11.3 0.00 0.00 0.00 23 1015.5
20260905002514 31 52 3.2 11.3 0.00 0.00 0.00 22 1015.4
20260905002013 31 105 1.6 9.7 0.00 0.00 0.00 22 1015.4
20260905001524 31 88 4.8 9.7 0.00 0.00 0.00 22 1015.4
20260905001020 32 59 3.2 12.9 0.00 0.00 0.00 21 1015.4
20260905000517 32 96 0.0 12.9 0.00 0.00 0.00 22 1015.5
20260905000006 32 123 3.2 12.9 0.00 0.00 0.00 21 1015.4
20260904235506 32 55 3.2 14.5 0.00 0.00 0.00 21 1015.4
20260904235005 32 85 6.4 14.5 0.00 0.00 0.00 21 1015.4
20260904234510 32 285 1.6 12.9 0.00 0.00 0.00 22 1015.4
20260904234007 32 67 4.8 14.5 0.00 0.00 0.00 21 1015.3
20260904233507 32 64 4.8 14.5 0.00 0.00 0.00 22 1015.3
20260904233019 32 52 4.8 14.5 0.00 0.00 0.00 21 1015.3
20260904232510 32 61 0.0 11.3 0.00 0.00 0.00 21 1015.3
20260904232013 32 198 1.6 11.3 0.00 0.00 0.00 19 1015.4
20260904231523 32 90 3.2 12.9 0.00 0.00 0.00 20 1015.3
20260904231012 32 64 4.8 12.9 0.00 0.00 0.00 20 1015.3
20260904230514 33 92 4.8 11.3 0.00 0.00 0.00 19 1015.3
20260904230032 33 279 4.8 11.3 0.00 0.00 0.00 19 1015.3
20260904225513 33 54 4.8 11.3 0.00 0.00 0.00 20 1015.3
20260904225019 33 225 1.6 12.9 0.00 0.00 0.00 19 1015.5
20260904224510 33 229 3.2 12.9 0.00 0.00 0.00 18 1015.4
20260904224008 33 138 1.6 14.5 0.00 0.00 0.00 19 1015.5
20260904223507 33 202 1.6 14.5 0.00 0.00 0.00 18 1015.5
20260904223012 33 201 1.6 14.5 0.00 0.00 0.00 19 1015.6
20260904222510 33 70 3.2 12.9 0.00 0.00 0.00 19 1015.5
20260904222009 33 171 3.2 12.9 0.00 0.00 0.00 19 1015.6
20260904221519 33 294 1.6 12.9 0.00 0.00 0.00 18 1015.5
20260904221014 33 46 1.6 12.9 0.00 0.00 0.00 18 1015.6
20260904220512 33 55 4.8 16.1 0.00 0.00 0.00 18 1015.6
20260904220027 34 91 6.4 16.1 0.00 0.00 0.00 19 1015.6
20260904215514 34 67 6.4 12.9 0.00 0.00 0.00 18 1015.6
20260904215016 35 158 3.2 11.3 0.00 0.00 0.00 19 1015.7
20260904214529 35 74 4.8 11.3 0.00 0.00 0.00 18 1015.7
20260904214016 35 260 3.2 11.3 0.00 0.00 0.00 19 1015.8
20260904213508 35 44 3.2 9.7 0.00 0.00 0.00 18 1015.8
20260904213010 35 225 4.8 11.3 0.00 0.00 0.00 19 1015.8
20260904212508 35 217 3.2 12.9 0.00 0.00 0.00 17 1015.9
20260904212008 35 64 4.8 14.5 0.00 0.00 0.00 18 1015.9
20260904211516 35 227 6.4 14.5 0.00 0.00 0.00 18 1015.8
20260904211010 35 275 1.6 14.5 0.00 0.00 0.00 19 1015.9
20260904210513 35 234 1.6 14.5 0.00 0.00 0.00 18 1016.0
20260904210030 34 214 3.2 16.1 0.00 0.00 0.00 19 1016.0
20260904205517 34 46 9.7 16.1 0.00 0.00 0.00 20 1016.0
20260904205015 35 94 4.8 17.7 0.00 0.00 0.00 19 1016.1
20260904204531 35 121 3.2 17.7 0.00 0.00 0.00 19 1016.2
20260904204021 35 44 1.6 16.1 0.00 0.00 0.00 20 1016.2
20260904203516 35 120 1.6 14.5 0.00 0.00 0.00 19 1016.2
20260904203047 35 196 6.4 14.5 0.00 0.00 0.00 18 1016.1
20260904202519 35 63 3.2 11.3 0.00 0.00 0.00 20 1016.2
20260904202010 35 175 3.2 16.1 0.00 0.00 0.00 19 1016.3
20260904201514 35 56 3.2 16.1 0.00 0.00 0.00 19 1016.2
20260904201009 35 55 1.6 12.9 0.00 0.00 0.00 19 1016.2
20260904200510 35 67 4.8 16.1 0.00 0.00 0.00 20 1016.3
20260904200020 34 73 6.4 16.1 0.00 0.00 0.00 21 1016.3
20260904195515 34 58 1.6 8.0 0.00 0.00 0.00 20 1016.3
20260904195011 34 56 3.2 12.9 0.00 0.00 0.00 19 1016.3
20260904194529 34 60 4.8 14.5 0.00 0.00 0.00 21 1016.4
20260904194015 35 77 9.7 14.5 0.00 0.00 0.00 20 1016.3
20260904193517 35 67 0.0 11.3 0.00 0.00 0.00 20 1016.4
20260904193031 34 229 3.2 14.5 0.00 0.00 0.00 21 1016.5
20260904192515 34 52 4.8 14.5 0.00 0.00 0.00 21 1016.3
20260904192018 34 74 8.0 14.5 0.00 0.00 0.00 21 1016.4
20260904191536 34 75 1.6 17.7 0.00 0.00 0.00 21 1016.5
20260904191010 34 38 1.6 17.7 0.00 0.00 0.00 21 1016.4
20260904190510 34 28 1.6 11.3 0.00 0.00 0.00 23 1016.4
20260904190016 34 76 3.2 14.5 0.00 0.00 0.00 22 1016.6
20260904185509 34 138 3.2 14.5 0.00 0.00 0.00 22 1016.7
20260904185011 34 249 3.2 11.3 0.00 0.00 0.00 23 1016.8
20260904184531 34 234 3.2 11.3 0.00 0.00 0.00 25 1017.0
20260904184013 34 173 3.2 11.3 0.00 0.00 0.00 23 1016.9
20260904183512 34 262 3.2 12.9 0.00 0.00 0.00 21 1017.0
20260904183027 34 102 1.6 12.9 0.00 0.00 0.00 23 1017.1
20260904182525 33 61 3.2 12.9 0.00 0.00 0.00 24 1017.1
20260904182020 33 31 0.0 9.7 0.00 0.00 0.00 23 1017.2
20260904181530 33 133 1.6 12.9 0.00 0.00 0.00 23 1017.3
20260904181016 33 69 1.6 12.9 0.00 0.00 0.00 23 1017.3
20260904180522 33 262 3.2 6.4 0.00 0.00 0.00 26 1017.3
20260904180040 33 300 3.2 11.3 0.00 0.00 0.00 25 1017.5
20260904175512 32 158 4.8 11.3 0.00 0.00 0.00 27 1017.4
20260904175011 33 250 3.2 9.7 0.00 0.00 0.00 25 1017.5
20260904174520 32 148 1.6 8.0 0.00 0.00 0.00 24 1017.6
20260904174010 32 138 3.2 9.7 0.00 0.00 0.00 26 1017.6
20260904173515 32 197 1.6 9.7 0.00 0.00 0.00 25 1017.6
20260904173025 32 308 3.2 8.0 0.00 0.00 0.00 27 1017.7
20260904172516 31 275 1.6 9.7 0.00 0.00 0.00 27 1017.7
20260904172014 31 172 3.2 11.3 0.00 0.00 0.00 29 1017.7
20260904171528 31 200 3.2 11.3 0.00 0.00 0.00 28 1017.7
20260904171015 31 152 3.2 9.7 0.00 0.00 0.00 27 1017.6
20260904170515 31 212 1.6 8.0 0.00 0.00 0.00 28 1017.7
20260904170037 31 157 1.6 8.0 0.00 0.00 0.00 29 1017.7
20260904165519 31 230 1.6 11.3 0.00 0.00 0.00 29 1017.7
20260904165015 30 324 1.6 11.3 0.00 0.00 0.00 29 1017.7
20260904164536 30 53 1.6 11.3 0.00 0.00 0.00 28 1017.7
20260904164009 30 69 3.2 9.7 0.00 0.00 0.00 29 1017.6
20260904163510 30 218 1.6 9.7 0.00 0.00 0.00 30 1017.6
20260904163020 30 357 1.6 8.0 0.00 0.00 0.00 29 1017.6
20260904162512 29 297 1.6 8.0 0.00 0.00 0.00 31 1017.7
20260904162013 29 219 1.6 8.0 0.00 0.00 0.00 29 1017.8
20260904161525 28 180 1.6 6.4 0.00 0.00 0.00 31 1018.0
20260904161015 28 60 1.6 6.4 0.00 0.00 0.00 33 1017.9
20260904160513 28 72 0.0 4.8 0.00 0.00 0.00 33 1017.9
20260904160043 28 206 1.6 4.8 0.00 0.00 0.00 33 1017.9
20260904155516 27 181 1.6 6.4 0.00 0.00 0.00 34 1018.0
20260904155018 27 140 1.6 8.0 0.00 0.00 0.00 32 1017.8
20260904154532 27 191 1.6 8.0 0.00 0.00 0.00 34 1017.7
20260904154017 27 26 1.6 8.0 0.00 0.00 0.00 33 1017.7
20260904153520 26 44 0.0 6.4 0.00 0.00 0.00 34 1017.7
20260904153019 26 201 1.6 6.4 0.00 0.00 0.00 35 1017.7
20260904152514 26 200 1.6 4.8 0.00 0.00 0.00 38 1017.7
20260904152014 25 121 1.6 6.4 0.00 0.00 0.00 37 1017.7
20260904151523 25 135 0.0 6.4 0.00 0.00 0.00 38 1017.6
20260904151015 25 131 0.0 4.8 0.00 0.00 0.00 38 1017.6
20260904150517 24 1 1.6 4.8 0.00 0.00 0.00 40 1017.5
20260904150031 23 93 0.0 4.8 0.00 0.00 0.00 41 1017.5
20260904145516 23 11 0.0 3.2 0.00 0.00 0.00 47 1017.5
20260904145016 23 6 0.0 3.2 0.00 0.00 0.00 49 1017.5
20260904144534 23 2 0.0 0.0 0.00 0.00 0.00 50 1017.5
20260904144019 22 283 0.0 0.0 0.00 0.00 0.00 49 1017.5
20260904143519 22 283 0.0 0.0 0.00 0.00 0.00 47 1017.5
20260904143036 21 279 0.0 0.0 0.00 0.00 0.00 47 1017.5
20260904142519 21 279 0.0 0.0 0.00 0.00 0.00 51 1017.5
20260904142020 21 279 0.0 0.0 0.00 0.00 0.00 54 1017.5
20260904141518 20 279 0.0 0.0 0.00 0.00 0.00 54 1017.5
20260904141011 20 279 0.0 0.0 0.00 0.00 0.00 54 1017.4
20260904140513 19 279 0.0 0.0 0.00 0.00 0.00 54 1017.3
20260904140028 18 279 0.0 0.0 0.00 0.00 0.00 57 1017.2
20260904135517 18 279 0.0 0.0 0.00 0.00 0.00 59 1017.2
20260904135016 17 279 0.0 0.0 0.00 0.00 0.00 59 1017.2
20260904134550 17 279 0.0 0.0 0.00 0.00 0.00 61 1017.1
20260904134018 16 279 0.0 0.0 0.00 0.00 0.00 62 1017.1
20260904133518 16 279 0.0 0.0 0.00 0.00 0.00 64 1017.0
20260904133039 15 279 0.0 0.0 0.00 0.00 0.00 67 1016.9
20260904132521 15 270 0.0 0.0 0.00 0.00 0.00 67 1016.8
20260904132017 14 279 0.0 0.0 0.00 0.00 0.00 68 1016.7
20260904131540 13 270 0.0 0.0 0.00 0.00 0.00 68 1016.7
20260904131018 13 279 0.0 0.0 0.00 0.00 0.00 69 1016.6
20260904130517 13 279 0.0 0.0 0.00 0.00 0.00 69 1016.6
20260904130025 13 279 0.0 1.6 0.00 0.00 0.00 69 1016.6
20260904125512 13 279 0.0 3.2 0.00 0.00 0.00 69 1016.6
20260904125014 13 279 1.6 4.8 0.00 0.00 0.00 69 1016.4
20260904124528 13 270 0.0 4.8 0.00 0.00 0.00 68 1016.3
20260904124015 13 270 0.0 4.8 0.00 0.00 0.00 68 1016.2
20260904123518 13 283 0.0 0.0 0.00 0.00 0.00 67 1016.1
20260904123030 13 270 0.0 0.0 0.00 0.00 0.00 67 1016.1
20260904122518 13 270 0.0 0.0 0.00 0.00 0.00 65 1016.0
20260904122018 13 270 0.0 0.0 0.00 0.00 0.00 65 1015.9
20260904121536 13 270 0.0 0.0 0.00 0.00 0.00 63 1015.8
20260904121018 13 270 0.0 0.0 0.00 0.00 0.00 64 1015.7
20260904120520 13 270 0.0 0.0 0.00 0.00 0.00 65 1015.7
20260904120036 13 270 0.0 0.0 0.00 0.00 0.00 64 1015.6
20260904115519 13 270 0.0 0.0 0.00 0.00 0.00 64 1015.6
20260904115014 13 270 0.0 0.0 0.00 0.00 0.00 64 1015.5
20260904114528 13 270 0.0 0.0 0.00 0.00 0.00 63 1015.5
20260904114017 13 270 0.0 0.0 0.00 0.00 0.00 63 1015.6
20260904113519 13 270 0.0 1.6 0.00 0.00 0.00 63 1015.6
20260904113030 13 270 0.0 1.6 0.00 0.00 0.00 64 1015.6
20260904112519 13 270 0.0 1.6 0.00 0.00 0.00 63 1015.6
20260904112015 14 270 0.0 1.6 0.00 0.00 0.00 63 1015.6
20260904111538 14 287 0.0 1.6 0.00 0.00 0.00 63 1015.6
20260904111017 14 270 0.0 4.8 0.00 0.00 0.00 62 1015.6
20260904110517 14 286 0.0 4.8 0.00 0.00 0.00 62 1015.6
20260904110033 14 288 0.0 1.6 0.00 0.00 0.00 61 1015.7
20260904105522 14 270 0.0 4.8 0.00 0.00 0.00 62 1015.7
20260904105021 14 287 1.6 4.8 0.00 0.00 0.00 60 1015.6
20260904104534 14 287 0.0 0.0 0.00 0.00 0.00 60 1015.6
20260904104017 15 284 0.0 0.0 0.00 0.00 0.00 59 1015.6
20260904103517 15 270 0.0 0.0 0.00 0.00 0.00 59 1015.6
20260904103030 15 270 0.0 1.6 0.00 0.00 0.00 58 1015.6
20260904102518 15 270 0.0 1.6 0.00 0.00 0.00 58 1015.5
20260904102018 15 279 0.0 0.0 0.00 0.00 0.00 58 1015.4
20260904101531 15 279 0.0 0.0 0.00 0.00 0.00 58 1015.5
20260904101005 15 279 0.0 0.0 0.00 0.00 0.00 58 1015.4
20260904100507 15 279 0.0 0.0 0.00 0.00 0.00 57 1015.4
20260904100015 15 279 0.0 0.0 0.00 0.00 0.00 57 1015.4
20260904095513 16 279 0.0 1.6 0.00 0.00 0.00 57 1015.5
20260904095012 16 279 0.0 1.6 0.00 0.00 0.00 57 1015.4
20260904094534 16 279 0.0 1.6 0.00 0.00 0.00 57 1015.5
20260904094013 16 279 0.0 4.8 0.00 0.00 0.00 56 1015.4
20260904093504 16 279 0.0 4.8 0.00 0.00 0.00 56 1015.4
20260904093005 16 279 1.6 4.8 0.00 0.00 0.00 56 1015.4
20260904092503 16 279 1.6 4.8 0.00 0.00 0.00 57 1015.4
20260904092005 16 287 1.6 4.8 0.00 0.00 0.00 58 1015.5
20260904091506 16 287 0.0 0.0 0.00 0.00 0.00 57 1015.5
20260904091005 16 287 0.0 1.6 0.00 0.00 0.00 57 1015.4